Regional Weather Roundup
Issued by NWS

Home | Current Version | Previous Version | Graphics & Text | Print | Product List | Glossary On
Versions: 1 2 3 4 5 6 7 8 9 10 11 12 13 14 15 16 17 18 19 20 21 22 23 24 25 26 27 28 29 30 31 32 33 34 35 36 37 38 39 40 41 42 43 44 45 46 47 48 49 50
000
ASUS43 KDMX 191801
RWRIA

WEATHER ROUNDUP FOR IOWA
NATIONAL WEATHER SERVICE DES MOINES IA
1200 PM CST SUN FEB 19 2017

NOTE: "FAIR" INDICATES FEW OR NO CLOUDS BELOW 12,000 FEET WITH NO
SIGNIFICANT WEATHER AND/OR OBSTRUCTIONS TO VISIBILITY.

* - THESE STATIONS ARE NOT NWS STATIONS...THUS NOT UNDER NWS
QUALITY CONTROL.  THEY ALSO DO NOT REPORT WEATHER SUCH
AS PRECIPITATION OR FOG.

IAZ001>003-012>014-020>022-031>034-043>046-191900-
   NORTHWEST IOWA

CITY           SKY/WX    TMP DP  RH WIND       PRES   REMARKS
CARROLL *      SUNNY     61  52  72 SE12      29.89F
CHEROKEE *     MOSUNNY   62  52  69 S14       29.84S
DENISON *      MOSUNNY   61  50  67 S15G24    29.85F
LE MARS *      MOSUNNY   59  52  77 S15G21    29.82S
SHELDON *      MOSUNNY   57  55  94 S17       29.80F
SIOUX CITY     CLOUDY    60  50  69 S17       29.83R
6HR MIN TEMP:  36; 6HR MAX TEMP:  60;

SPENCER        SUNNY     59  50  72 S15       29.84F
6HR MIN TEMP:  34; 6HR MAX TEMP:  59;

STORM LAKE *   SUNNY     57  50  77 S20       29.85F
$$

IAZ055>058-069>071-079>083-090>094-191900-
   SOUTHWEST IOWA

CITY           SKY/WX    TMP DP  RH WIND       PRES   REMARKS
ATLANTIC *     MOSUNNY   63  52  67 S15G21    29.89F
CLARINDA *     MOSUNNY   66  52  59 S14         N/A
COUNCIL BLFS * MOSUNNY   63  52  67 SE18      29.87F
CRESTON *      SUNNY     64  50  59 S15G21    29.94F
HARLAN  *      MOSUNNY   61  54  77 S15G22    29.92F
LAMONI         MOSUNNY   64  51  62 S10G18    29.95F
6HR MIN TEMP:  43; 6HR MAX TEMP:  65;

RED OAK *      CLOUDY    66  52  59 S16G22    29.91F
SHENANDOAH *   SUNNY     64  52  63 S16       29.91F
$$

IAZ047>049-059>061-072>074-084-191900-
   CENTRAL IOWA

CITY           SKY/WX    TMP DP  RH WIND       PRES   REMARKS
AMES           CLOUDY    62  49  62 S10       29.94F
6HR MIN TEMP:  30; 6HR MAX TEMP:  62;

ANKENY *       MOSUNNY   64  48  55 SE7       29.95F
BOONE *        SUNNY     59  50  72 S14       29.92F
CHARITON *     SUNNY     66  50  55 S10       29.96F
DES MOINES     PTSUNNY   67  49  52 S10       29.94F
6HR MIN TEMP:  41; 6HR MAX TEMP:  67;

GRINNELL*      SUNNY     64  46  51 S7        29.99S
KNOXVILLE *    SUNNY     68  50  52 S10G16    29.95F
MARSHALLTOWN   SUNNY     62  44  51 S10       29.96F
6HR MIN TEMP:  27; 6HR MAX TEMP:  62;

NEWTON *       SUNNY     63  48  59 S13       29.96F
PELLA *        SUNNY     66  49  53 S8        29.98F
PERRY *          N/A     59  48  66 SE13      29.92F
$$

IAZ004>006-015-016-023>025-035-036-191900-
   NORTH CENTRAL IOWA

CITY           SKY/WX    TMP DP  RH WIND       PRES   REMARKS
ALGONA *       SUNNY     55  48  76 S14       29.89F
CLARION *      SUNNY     55  54  94 S15       29.92F
ESTHERVILLE    SUNNY     52  46  80 SE14      29.85F
6HR MIN TEMP:  31; 6HR MAX TEMP:  52;

FORT DODGE *   SUNNY     61  48  63 SE6       29.91F
MASON CITY     MOSUNNY   52  43  71 SE14      29.93F
6HR MIN TEMP:  29; 6HR MAX TEMP:  52;

FOREST CITY *    N/A     54  45  71 SE15      29.91F
IOWA FALLS *     N/A     58  48  71 SE10      29.95F
$$

IAZ007>011-017>019-026>030-037>042-050>054-066-191900-
   NORTHEAST IOWA

CITY           SKY/WX    TMP DP  RH WIND       PRES   REMARKS
CEDAR RAPIDS   SUNNY     62  39  42 S10       29.99F
6HR MIN TEMP:  28; 6HR MAX TEMP:  63;

CHARLES CITY * SUNNY     54  48  82 SE13      29.97F
CLINTON *      SUNNY     61  42  49 S6        30.05S
DECORAH *      MOSUNNY   54  43  66 SE9       29.99S
DUBUQUE        SUNNY     58  40  51 S10       30.03F
6HR MIN TEMP:  31; 6HR MAX TEMP:  58;

MONTICELLO *   SUNNY     61  43  51 SE8       30.01F
OELWEIN *      SUNNY     57  45  62 S13       29.99F
WATERLOO       SUNNY     57  40  52 SE12      29.97F
6HR MIN TEMP:  26; 6HR MAX TEMP:  58;

$$

IAZ064-065-067-068-078-191900-
   EAST CENTRAL IOWA

CITY           SKY/WX    TMP DP  RH WIND       PRES   REMARKS
DAVENPORT      SUNNY     65  36  34 S8        30.03F
6HR MIN TEMP:  30; 6HR MAX TEMP:  65;

IOWA CITY      SUNNY     65  40  39 SE10      30.02F
6HR MIN TEMP:  29; 6HR MAX TEMP:  65;

MUSCATINE *    SUNNY     66  39  37 SE8       30.02F
QUAD CITIES    SUNNY     68  35  29 SE3       30.02F
6HR MIN TEMP:  27; 6HR MAX TEMP:  68;

$$

IAZ062-063-075>077-085>089-095>099-191900-
   SOUTHEAST IOWA

CITY           SKY/WX    TMP DP  RH WIND       PRES   REMARKS
BURLINGTON     SUNNY     64  47  53 S7        30.02F
6HR MIN TEMP:  35; 6HR MAX TEMP:  64;

FAIRFIELD *    SUNNY     66  43  42 S6        29.99F
KEOKUK *       SUNNY     66  48  52 S5        30.01F
OTTUMWA        MOSUNNY   67  48  50 SE7       29.99F
6HR MIN TEMP:  32; 6HR MAX TEMP:  68;

WASHINGTON *   SUNNY     68  41  37 SE9       30.01F
$$

ABBREVIATIONS USED IN REMARKS
   TC - TEMPERATURES IN CELSIUS
  WCI - WIND CHILL INDEX
   HX - HEAT INDEX
  VSB - VISIBILITY
$$




USA.gov is the U.S. government's official web portal to all federal, state and local government web resources and services.